Voltar ao catálogo

FENGYUN 1C DEB

AtivoSSO
NORAD 29973·DEBRIS·🇨🇳 China

Lançado May 10, 1999 de Taiyuan Satellite Launch Center

Loading…

Próximas Passagens (próximas 24 horas)

TLE

AtualizadoSource: Space-Track

Época: Sep 14, 2026, 05:30 UTC

1 29973U 99025KX  26257.22969044  .00000837  00000-0  51789-3 0  9994
2 29973  98.8514 256.7347 0059730  95.8311 324.6710 14.07077781  5912

Acompanhe FENGYUN 1C DEB em tempo real com AllMySat

Download on the App Store